Location: San Ramon
(37.7799°N, 121.9780°W)
Time: 13:03:33
(UTC+00:00)

Daily predictions for brighter satellites

Satellite Brightness Start Highest point End
(mag) Time Altitude Azimuth Time Altitude Azimuth Time Altitude Azimuth
Cosmos 1933 Rocket 4.3 12:08:17 10° NNW 12:12:09 32° W 12:15:59 10° SSW
Cosmos 1867 3.8 12:08:27 10° NW 12:13:39 46° WSW 12:18:48 10° S
Intelsat 5-1 Rocket 4.1 12:11:11 10° SSW 12:14:27 19° SSE 12:20:07 10° ESE
AQUA 3.9 12:10:08 10° N 12:14:44 59° WNW 12:19:18 10° SSW
Cosmos 1400 Rocket 2.8 12:13:36 10° NNW 12:17:18 53° W 12:20:58 10° S
USA 307 4.2 12:17:35 10° W 12:19:14 13° SW 12:21:00 10° SSW
ADEOS II 3.3 12:15:42 10° NNW 12:19:53 25° WNW 12:24:04 10° WSW
Cosmos 1844 Rocket 4.5 12:17:10 10° W 12:20:41 17° NW 12:24:13 10° NNW
Cosmos 1833 Rocket 4.2 12:16:52 10° N 12:22:13 43° ENE 12:27:33 10° SE
Cosmos 1680 Rocket 4.0 12:17:28 10° S 12:22:36 63° ESE 12:27:44 10° NNE
SL-24 DEB 4.2 12:18:25 10° S 12:22:56 90° W 12:27:27 10° N
H-2A R/B 4.0 12:22:33 10° WSW 12:24:11 13° W 12:25:50 10° WNW
SL-08 RB Rocket 3.7 12:21:39 10° N 12:26:09 65° WNW 12:30:38 10° SSW
Resurs 1-4 Rocket 4.0 12:23:52 10° NNW 12:26:36 14° WNW 12:29:20 10° W
Cosmos 1603 4.2 12:22:48 10° NW 12:28:03 37° WSW 12:33:14 10° S
Cosmos 44 Rocket 3.7 12:29:53 10° NNW 12:35:04 77° ENE 12:40:05 10° SE
